TimePST,TemperatureF,Dew PointF,Humidity,Sea Level PressureIn,VisibilityMPH,Wind Direction,Wind SpeedMPH,Gust SpeedMPH,PrecipitationIn,Events,Conditions,WindDirDegrees,DateUTC
12:53 AM,50.0,37.0,61,29.95,10.0,West,9.2,-,N/A,,Clear,260,2014-02-04 08:53:00
1:53 AM,52.0,37.9,59,29.95,10.0,West,12.7,-,N/A,,Clear,260,2014-02-04 09:53:00
2:53 AM,50.0,37.9,63,29.96,10.0,West,10.4,-,N/A,,Clear,260,2014-02-04 10:53:00
3:53 AM,50.0,36.0,59,29.96,10.0,WSW,8.1,-,N/A,,Clear,250,2014-02-04 11:53:00
4:53 AM,48.9,37.0,64,29.97,10.0,West,8.1,-,N/A,,Clear,260,2014-02-04 12:53:00
5:53 AM,51.1,37.9,61,29.99,10.0,West,10.4,-,N/A,,Clear,270,2014-02-04 13:53:00
6:53 AM,50.0,37.0,61,30.00,10.0,WSW,8.1,-,N/A,,Clear,240,2014-02-04 14:53:00
7:53 AM,52.0,37.9,59,30.03,10.0,SW,6.9,-,N/A,,Clear,230,2014-02-04 15:53:00
8:53 AM,57.9,39.0,49,30.05,10.0,SW,6.9,-,N/A,,Clear,230,2014-02-04 16:53:00
9:53 AM,61.0,37.9,42,30.06,10.0,SW,9.2,-,N/A,,Clear,220,2014-02-04 17:53:00
10:53 AM,62.1,36.0,38,30.05,10.0,NW,3.5,-,N/A,,Clear,320,2014-02-04 18:53:00
11:53 AM,64.0,36.0,35,30.03,10.0,Calm,Calm,-,N/A,,Clear,0,2014-02-04 19:53:00
12:53 PM,64.9,35.1,33,29.99,10.0,North,-9999.0,-,N/A,,Clear,0,2014-02-04 20:53:00
1:53 PM,64.9,35.1,33,29.97,10.0,ENE,8.1,-,N/A,,Clear,70,2014-02-04 21:53:00
2:53 PM,66.0,36.0,33,29.96,10.0,ENE,6.9,-,N/A,,Clear,70,2014-02-04 22:53:00
3:53 PM,66.0,36.0,33,29.96,10.0,ESE,12.7,-,N/A,,Clear,110,2014-02-04 23:53:00
4:53 PM,64.0,36.0,35,29.96,10.0,East,8.1,-,N/A,,Clear,100,2014-02-05 00:53:00
5:53 PM,62.1,37.0,39,29.96,10.0,ESE,8.1,-,N/A,,Clear,120,2014-02-05 01:53:00
6:53 PM,62.1,37.0,39,29.97,10.0,SE,9.2,-,N/A,,Clear,140,2014-02-05 02:53:00
7:53 PM,61.0,36.0,39,29.99,10.0,SE,5.8,-,N/A,,Clear,140,2014-02-05 03:53:00
8:53 PM,57.9,36.0,44,30.01,10.0,SW,4.6,-,N/A,,Clear,230,2014-02-05 04:53:00
9:53 PM,55.9,37.0,49,30.01,10.0,Calm,Calm,-,N/A,,Clear,0,2014-02-05 05:53:00
10:53 PM,57.0,37.0,47,30.02,10.0,Calm,Calm,-,N/A,,Clear,0,2014-02-05 06:53:00
11:53 PM,55.9,41.0,57,30.02,10.0,WSW,6.9,-,N/A,,Mostly Cloudy,250,2014-02-05 07:53:00